TimeMST,TemperatureF,Dew PointF,Humidity,Sea Level PressureIn,VisibilityMPH,Wind Direction,Wind SpeedMPH,Gust SpeedMPH,PrecipitationIn,Events,Conditions,WindDirDegrees,DateUTC
12:53 AM,28.0,23.0,81,29.65,10.0,Calm,Calm,-,N/A,,Clear,0,2012-11-09 07:53:00
1:53 AM,28.0,24.1,85,29.63,10.0,SE,3.5,-,N/A,,Clear,130,2012-11-09 08:53:00
2:53 AM,26.1,24.1,92,29.64,10.0,NNW,6.9,-,N/A,,Clear,340,2012-11-09 09:53:00
3:18 AM,26.6,24.8,93,29.63,10.0,NW,10.4,-,N/A,,Scattered Clouds,320,2012-11-09 10:18:00
3:34 AM,26.6,24.8,93,29.63,1.5,NW,9.2,-,N/A,,Mostly Cloudy,310,2012-11-09 10:34:00
3:41 AM,26.6,24.8,93,29.63,0.8,NW,10.4,-,N/A,,Mist,320,2012-11-09 10:41:00
3:49 AM,26.6,24.8,93,29.62,1.2,NW,10.4,-,N/A,,Overcast,320,2012-11-09 10:49:00
3:53 AM,27.0,25.0,92,29.64,1.8,NW,10.4,-,N/A,,Overcast,310,2012-11-09 10:53:00
3:59 AM,26.6,24.8,93,29.62,3.0,NW,8.1,-,N/A,,Overcast,320,2012-11-09 10:59:00
4:32 AM,28.4,26.6,93,29.62,2.5,NNW,8.1,-,N/A,,Overcast,340,2012-11-09 11:32:00
4:42 AM,28.4,26.6,93,29.62,4.0,NNW,6.9,-,N/A,,Overcast,340,2012-11-09 11:42:00
4:53 AM,28.0,27.0,96,29.65,4.0,NNW,6.9,-,N/A,,Overcast,340,2012-11-09 11:53:00
5:10 AM,28.4,26.6,93,29.63,2.0,NNW,6.9,-,N/A,,Overcast,340,2012-11-09 12:10:00
5:17 AM,28.4,26.6,93,29.63,1.2,NNW,6.9,-,N/A,,Overcast,340,2012-11-09 12:17:00
5:39 AM,28.4,26.6,93,29.62,0.8,North,4.6,-,N/A,,Mist,10,2012-11-09 12:39:00
5:53 AM,28.9,27.0,92,29.65,0.8,NNW,6.9,-,N/A,,Mist,340,2012-11-09 12:53:00
6:10 AM,28.4,26.6,93,29.61,1.2,NNW,6.9,-,N/A,,Overcast,330,2012-11-09 13:10:00
6:21 AM,28.4,26.6,93,29.61,2.5,NW,6.9,-,N/A,,Overcast,310,2012-11-09 13:21:00
6:39 AM,28.4,26.6,93,29.61,1.2,Calm,Calm,-,N/A,,Overcast,0,2012-11-09 13:39:00
6:53 AM,28.0,26.1,92,29.64,1.8,Calm,Calm,-,N/A,,Overcast,0,2012-11-09 13:53:00
7:00 AM,28.4,26.6,93,29.61,2.0,Calm,Calm,-,N/A,,Overcast,0,2012-11-09 14:00:00
7:36 AM,28.4,26.6,93,29.60,1.0,SSE,3.5,-,N/A,,Overcast,150,2012-11-09 14:36:00
7:43 AM,28.4,26.6,93,29.59,0.5,ESE,3.5,-,N/A,Fog,Light Freezing Fog,120,2012-11-09 14:43:00
7:53 AM,28.9,27.0,92,29.63,0.5,ESE,4.6,-,N/A,Fog,Light Freezing Fog,110,2012-11-09 14:53:00
8:53 AM,28.9,27.0,92,29.66,1.5,North,6.9,-,N/A,,Overcast,360,2012-11-09 15:53:00
8:59 AM,30.2,26.6,86,29.61,3.0,NNW,6.9,-,N/A,,Overcast,340,2012-11-09 15:59:00
9:53 AM,30.0,26.1,85,29.68,10.0,North,18.4,25.3,N/A,,Overcast,350,2012-11-09 16:53:00
10:53 AM,30.9,27.0,85,29.70,10.0,NNW,21.9,26.5,N/A,,Overcast,340,2012-11-09 17:53:00
11:53 AM,32.0,27.0,82,29.68,10.0,North,20.7,26.5,N/A,,Overcast,350,2012-11-09 18:53:00
12:53 PM,30.9,26.1,82,29.69,9.0,NNW,18.4,27.6,0.00,,Overcast,340,2012-11-09 19:53:00
1:24 PM,30.2,26.6,86,29.62,10.0,NNW,21.9,-,0.01,,Overcast,340,2012-11-09 20:24:00
1:38 PM,30.2,26.6,86,29.63,8.0,NNW,18.4,26.5,0.01,,Overcast,340,2012-11-09 20:38:00
1:53 PM,30.0,27.0,88,29.70,8.0,North,15.0,26.5,0.01,Rain,Light Freezing Rain,350,2012-11-09 20:53:00
2:15 PM,30.2,26.6,86,29.63,10.0,North,19.6,25.3,0.00,,Overcast,350,2012-11-09 21:15:00
2:22 PM,30.2,26.6,86,29.62,10.0,North,18.4,25.3,0.00,,Overcast,360,2012-11-09 21:22:00
2:51 PM,30.2,26.6,86,29.64,10.0,NNW,19.6,25.3,0.00,,Overcast,340,2012-11-09 21:51:00
2:53 PM,30.0,27.0,88,29.71,9.0,NNW,17.3,25.3,0.00,,Overcast,340,2012-11-09 21:53:00
3:07 PM,30.2,26.6,86,29.65,1.8,NNW,15.0,26.5,0.01,Snow,Light Snow,330,2012-11-09 22:07:00
3:13 PM,30.2,26.6,86,29.66,0.8,NNW,15.0,26.5,0.01,Snow,Light Snow,330,2012-11-09 22:13:00
3:23 PM,28.4,26.6,93,29.64,0.5,North,18.4,25.3,0.02,Fog-Snow,Snow,350,2012-11-09 22:23:00
3:33 PM,28.4,26.6,93,29.64,0.2,NNW,18.4,27.6,0.03,Fog-Snow,Snow,340,2012-11-09 22:33:00
3:51 PM,28.4,26.6,93,29.64,1.0,NNW,16.1,27.6,0.04,Snow,Light Snow,340,2012-11-09 22:51:00
3:53 PM,28.9,27.0,92,29.72,1.2,NNW,19.6,27.6,0.04,Snow,Light Snow,340,2012-11-09 22:53:00
3:58 PM,28.4,26.6,93,29.65,3.0,NNW,15.0,26.5,0.00,Snow,Light Snow,330,2012-11-09 22:58:00
4:20 PM,28.4,26.6,93,29.64,1.5,NNW,18.4,25.3,0.00,Snow,Light Snow,340,2012-11-09 23:20:00
4:25 PM,28.4,26.6,93,29.64,0.8,NNW,15.0,25.3,0.01,Snow,Light Snow,340,2012-11-09 23:25:00
4:34 PM,28.4,26.6,93,29.65,1.2,NNW,13.8,25.3,0.01,Snow,Light Snow,340,2012-11-09 23:34:00
4:43 PM,28.4,26.6,93,29.64,3.0,NNW,12.7,24.2,0.01,Snow,Light Snow,340,2012-11-09 23:43:00
4:51 PM,28.4,26.6,93,29.63,5.0,North,19.6,25.3,0.01,Snow,Light Snow,350,2012-11-09 23:51:00
4:53 PM,28.9,27.0,92,29.71,5.0,North,19.6,25.3,0.01,Snow,Light Snow,350,2012-11-09 23:53:00
5:01 PM,28.4,26.6,93,29.64,2.5,North,19.6,24.2,0.00,Snow,Light Snow,350,2012-11-10 00:01:00
5:19 PM,28.4,26.6,93,29.65,7.0,North,12.7,25.3,0.00,Snow,Light Snow,350,2012-11-10 00:19:00
5:53 PM,28.9,26.1,89,29.73,2.0,North,15.0,24.2,0.00,Snow,Light Snow,350,2012-11-10 00:53:00
6:11 PM,28.4,26.6,93,29.65,3.0,North,20.7,-,0.00,Snow,Light Snow,350,2012-11-10 01:11:00
6:19 PM,28.4,26.6,93,29.64,1.8,North,20.7,24.2,0.00,Snow,Light Snow,350,2012-11-10 01:19:00
6:26 PM,28.4,26.6,93,29.64,0.8,North,20.7,24.2,0.00,Snow,Light Snow,350,2012-11-10 01:26:00
6:38 PM,28.4,26.6,93,29.65,1.0,North,19.6,25.3,0.01,Snow,Light Snow,350,2012-11-10 01:38:00
6:49 PM,28.4,26.6,93,29.65,1.0,NNW,17.3,25.3,0.01,Snow,Light Snow,340,2012-11-10 01:49:00
6:53 PM,28.0,26.1,92,29.74,1.0,NNW,18.4,25.3,0.01,Snow,Light Snow,340,2012-11-10 01:53:00
7:00 PM,28.4,26.6,93,29.67,0.8,NNW,16.1,26.5,0.00,Snow,Light Snow,340,2012-11-10 02:00:00
7:14 PM,28.4,26.6,93,29.66,0.5,NNW,16.1,24.2,0.02,Fog-Snow,Snow,340,2012-11-10 02:14:00
7:21 PM,28.4,26.6,93,29.64,0.2,North,18.4,24.2,0.02,Fog-Snow,Heavy Snow,350,2012-11-10 02:21:00
7:30 PM,28.4,26.6,93,29.64,0.2,NNW,20.7,29.9,0.03,Fog-Snow,Heavy Snow,340,2012-11-10 02:30:00
7:53 PM,28.0,26.1,92,29.73,0.5,NNW,16.1,25.3,0.05,Fog-Snow,Snow,340,2012-11-10 02:53:00
8:10 PM,28.4,26.6,93,29.66,0.5,NNW,15.0,24.2,0.01,Fog-Snow,Snow,340,2012-11-10 03:10:00
8:32 PM,28.4,26.6,93,29.65,0.2,NNW,18.4,25.3,0.03,Fog-Snow,Heavy Snow,340,2012-11-10 03:32:00
8:53 PM,28.0,25.0,88,29.73,0.5,NNW,18.4,27.6,0.04,Fog-Snow,Snow,330,2012-11-10 03:53:00
9:17 PM,28.4,24.8,86,29.66,0.2,NNW,15.0,-,0.03,Fog-Snow,Heavy Snow,330,2012-11-10 04:17:00
9:43 PM,26.6,24.8,93,29.66,0.8,NNW,17.3,25.3,0.05,Snow,Light Snow,340,2012-11-10 04:43:00
9:50 PM,26.6,24.8,93,29.64,1.2,NNW,20.7,25.3,0.05,Snow,Light Snow,340,2012-11-10 04:50:00
9:51 PM,27.0,25.0,92,29.71,1.2,NNW,20.7,25.3,0.05,Snow,Light Snow,340,2012-11-10 04:51:00
10:03 PM,28.4,24.8,86,29.65,1.0,NNW,20.7,27.6,0.00,Snow,Light Snow,340,2012-11-10 05:03:00
10:10 PM,26.6,24.8,93,29.63,0.8,NNW,19.6,26.5,0.00,Snow,Light Snow,340,2012-11-10 05:10:00
10:16 PM,26.6,24.8,93,29.63,1.2,NNW,20.7,26.5,0.00,Snow,Light Snow,340,2012-11-10 05:16:00
10:23 PM,26.6,24.8,93,29.63,1.5,NNW,21.9,26.5,0.00,Snow,Light Snow,340,2012-11-10 05:23:00
10:30 PM,26.6,24.8,93,29.63,3.0,NNW,19.6,26.5,0.00,Snow,Light Snow,340,2012-11-10 05:30:00
10:37 PM,26.6,24.8,93,29.63,7.0,NNW,21.9,27.6,0.00,Snow,Light Snow,340,2012-11-10 05:37:00
10:53 PM,27.0,23.0,85,29.71,10.0,NNW,21.9,31.1,0.00,,Overcast,340,2012-11-10 05:53:00
11:12 PM,26.6,21.2,80,29.64,1.8,NNW,24.2,36.8,0.00,Snow,Light Snow,340,2012-11-10 06:12:00
11:18 PM,26.6,21.2,80,29.63,0.8,NNW,23.0,36.8,0.00,Snow,Light Snow,340,2012-11-10 06:18:00
11:34 PM,24.8,21.2,86,29.63,0.8,NNW,25.3,38.0,0.00,Snow,Light Snow,340,2012-11-10 06:34:00
11:47 PM,24.8,21.2,86,29.62,1.2,NNW,27.6,38.0,0.00,Snow,Light Snow,340,2012-11-10 06:47:00
11:48 PM,25.0,21.9,88,29.69,1.2,NNW,23.0,38.0,0.00,Snow,Light Snow,340,2012-11-10 06:48:00
11:55 PM,24.8,21.2,86,29.63,2.0,NNW,24.2,35.7,0.00,Snow,Light Snow,340,2012-11-10 06:55:00